星链-37551(STARLINK-37551)

导读

STARLINK-37551(NORAD编号68907)是美国SpaceX公司星链(Starlink)星座中的一颗低轨互联网卫星,隶属于SpaceX旗下Starlink Services LLC运营。 作为星链星座的组成部分,它服务于星链全球高速低延迟宽带互联网的核心目标,为地面网络覆盖不足的偏远地区提供网络接入服务。该卫星运行在近地轨道(LEO),依托星链庞大的星座组网,助力实现全球卫星互联网覆盖。 星链计划已部署超万颗低轨卫星,STARLINK-37551的入轨进一步补充了星座的服务能力,但也和其他星链卫星一同引发了天文观测和太空交通的相关争议。

Basic Information
目录编号:
68907
目录名称:
STARLINK-37551
国际标识:
2026-097N
轨道中心:
EARTH
卫星名称:
星链-37551
卫星全名:
星链-37551(STARLINK-37551)
卫星状态:
在轨 (已飞行127 天)
发射日期:
2026-04-30 UTC
国别 :
美国 (US)
星等 :
--
Orbit Information
数据来源 国际轨道数据 AOE轨道数据
星历时间 2026-09-04T07:05:56+0800
12小时前
查看轨道信息
2026-09-03T22:00:00+0800
21小时前
查看轨道信息
半长轴 6843.637km 6843.702km
偏心率 0.0001818 0.0001668
轨道倾角 97.286° 97.287°
近地点辐角 88.820° 90.352°
升交点赤经 81.281° 80.905°
平近点角 271.325° 338.228°
近地点 464.255km 464.423km
远地点 466.745km 466.707km
周期 93.905分钟 93.907分钟
每日圈数 15.334597 15.334379
Detailed Information
固有亮度:
5
最大亮度:
2.5
卫星平台:
Starlink V1.0
覆盖范围:
全球
运营商:
太空探索技术公司
运营商所在国:
美国
制造商(研发单位):
太空探索技术公司
制造商所在国:
美国
使用方式:
暂无
Satellite Introduction
Starlink 计划是 SpaceX 推出的全球卫星互联网项目,通过发射低轨道卫星,为全球尤其是偏远地区提供高速、低延迟的互联网服务。自 2019 年起,Starlink 已部署数千颗卫星,旨在缩小全球数字鸿沟,推动互联网普及。该项目还为军事、航空等行业提供通信支持,带来广泛经济效益。
2D Orbit Map
3D Orbit Map
Orbit Altitude Analysis Chart
Orbit Inclination Analysis Chart
Orbit Comprehensive Analysis Chart
View Comprehensive Chart
Conjunction Data List
Event ID Objects TCA Miss Dist (km) Collision Risk Probability Collision Risk Index (CRI) Action
CDM_260906-091505-246906-890721
2026-09-06T
09:15:58+0000
2.597 km
极远距离
1.545006E-6 低风险 0.39
CDM_260906-131005-246906-890721
2026-09-06T
13:10:46+0000
2.716 km
极远距离
1.440534E-6 低风险 0.38
CDM_260905-234905-284406-890721
2026-09-05T
23:49:12+0000
2.919 km
极远距离
1.357581E-6 低风险 0.38
CDM_260905-144906-303806-890721
2026-09-05T
14:49:46+0000
2.770 km
极远距离
1.105786E-6 低风险 0.36